Regional Weather Roundup
Issued by NWS

Home | Current Version | Previous Version | Graphics & Text | Print | Product List | Glossary On
Versions: 1 2 3 4 5 6 7 8 9 10 11 12 13 14 15 16 17 18 19 20 21 22 23 24 25 26 27 28 29 30 31 32 33 34 35 36 37 38 39 40 41 42 43 44 45 46 47 48 49 50
000
ASUS43 KOAX 140802
RWRNE

WEATHER ROUNDUP FOR NEBRASKA
NATIONAL WEATHER SERVICE OMAHA NE
200 AM CST THU DEC 14 2017

NOTES: SATELLITE DATA IS BEING USED TO AUGMENT CLOUD COVER ABOVE
       12000 FEET.
       "FAIR" INDICATES FEW OR NO CLOUDS BELOW 12,000 FEET WITH NO
       SIGNIFICANT WEATHER AND/OR OBSTRUCTIONS TO VISIBILITY.


NEZ001>004-019>022-054>056-140900-
NEBRASKA PANHANDLE

CITY           SKY/WX    TMP DP  RH WIND       PRES   REMARKS
SCOTTSBLUFF    CLOUDY    36  25  64 NW13      30.14F WCI  27
ALLIANCE       CLOUDY    33  26  75 W10       30.10F WCI  25
CHADRON        CLOUDY    37  24  59 NW12      30.11S WCI  29
GORDON         CLOUDY    35  28  75 NW10G17   30.08S WCI  27
KIMBALL        CLOUDY    31  27  84 NW13      30.13S WCI  21
SIDNEY         CLOUDY    32  27  81 NW17      30.13R WCI  21
$$

NEZ057>060-069>072-079>082-140900-
SOUTHWEST NEBRASKA

CITY           SKY/WX    TMP DP  RH WIND       PRES   REMARKS
NORTH PLATTE   CLOUDY    33  23  66 NW8       30.08S WCI  26
IMPERIAL       CLOUDY    36  21  54 W7        30.12S WCI  30
LEXINGTON      CLOUDY    32  22  66 NW5       30.07S WCI  28
MCCOOK         CLOUDY    38  23  55 W9        30.11R WCI  31
OGALLALA       CLOUDY    37  24  57 NW8       30.11S WCI  31
$$

NEZ005>010-023>029-035>040-094-140900-
NORTH CENTRAL NEBRASKA

CITY           SKY/WX    TMP DP  RH WIND       PRES   REMARKS
VALENTINE      CLOUDY    34  22  61 W8        30.05S WCI  27
AINSWORTH      PTCLDY    28  26  89 W6        30.03F WCI  22
BROKEN BOW     CLOUDY    30  23  75 CALM      30.05S
O`NEILL        CLOUDY    33  27  78 NW9       30.03S WCI  25
ORD            CLOUDY    32  25  75 NW7       30.04F WCI  26
THEDFORD       CLOUDY    36  25  64 W7        30.06S WCI  30
$$

NEZ041-046>049-061>064-073>077-083>087-140900-
SOUTH CENTRAL NEBRASKA

CITY           SKY/WX    TMP DP  RH WIND       PRES   REMARKS
GRAND ISLAND   CLOUDY    32  27  81 NW9       30.06S WCI  24
AURORA         CLOUDY    32  26  80 NW7       30.05R WCI  25
HASTINGS       CLOUDY    32  25  75 NW10      30.06S WCI  24
HEBRON         CLOUDY    32  26  80 NW5       30.06R WCI  27
HOLDREGE       CLOUDY    29  24  79 NE5       30.06F WCI  24
KEARNEY        CLOUDY    31  25  78 NW6       30.08R WCI  25
YORK           CLOUDY    34  28  80 NW5       30.04R WCI  30
$$

NEZ011>018-030>034-042>045-140900-
NORTHEAST NEBRASKA

CITY           SKY/WX    TMP DP  RH WIND       PRES   REMARKS
NORFOLK        CLOUDY    34  23  64 N12       30.00F WCI  25
ALBION         CLOUDY    34  26  74 NW7       30.02S WCI  28
BLAIR          CLOUDY    36  28  72 N10       30.00R WCI  28
COLUMBUS       CLOUDY    36  23  59 NW10      30.03S WCI  28
FREMONT        CLOUDY    36  27  68 N7        30.02R WCI  30
TEKAMAH        CLOUDY    35  26  69 NW13      30.01S WCI  26
WAYNE          CLOUDY    34  24  66 N10G16    30.00S WCI  26
$$

NEZ050>053-065>068-078-088>093-140900-
SOUTHEAST NEBRASKA

CITY           SKY/WX    TMP DP  RH WIND       PRES   REMARKS
LINCOLN        CLOUDY    38  24  57 N12       30.03R WCI  30
OMAHA EPPLEY   CLOUDY    36  26  67 N8        30.01R WCI  30
BEATRICE       CLOUDY    35  28  75 W9        30.03R WCI  28
FALLS CITY     CLOUDY    38  24  57 N9        30.00R WCI  31
NEBRASKA CITY  CLOUDY    37  28  67 N6        30.01R WCI  33
PLATTSMOUTH    CLOUDY    36  26  65 N9G20     30.01R WCI  29
$$

NEZ044-045-051>053-067-140900-
OMAHA AREA

CITY           SKY/WX    TMP DP  RH WIND       PRES   REMARKS
OMAHA EPPLEY   CLOUDY    36  26  67 N8        30.01R WCI  30
BLAIR          CLOUDY    36  28  72 N10       30.00R WCI  28
FREMONT        CLOUDY    36  27  68 N7        30.02R WCI  30
MILLARD        CLOUDY    38  28  68 N5        30.02R WCI  34
OFFUTT AFB     CLOUDY    37  25  62 N8        30.01R WCI  30
PLATTSMOUTH    CLOUDY    36  26  65 N9G20     30.01R WCI  29
WAHOO          CLOUDY    37  24  60 N12       30.01R WCI  29
$$



USA.gov is the U.S. government's official web portal to all federal, state and local government web resources and services.